Weather History for Kearney, NE

Change the Weather History Date:

Sunday, October 14, 2012

  Actual Average Record
Temperature  
Mean Temperature 61 °F 52 °F  
Max Temperature 75 °F 65 °F 87 °F (1966)
Min Temperature 46 °F 38 °F 24 °F (1986)
Degree Days  
Heating Degree Days 4 14  
Month to date heating degree days 157  
Since 1 July heating degree days 306  
Cooling Degree Days 0 0  
Month to date cooling degree days 4  
Year to date cooling degree days 869  
Growing Degree Days 12 (Base 50)    
Moisture  
Dew Point 36 °F    
Average Humidity 42    
Maximum Humidity 61    
Minimum Humidity 23    
Precipitation  
Precipitation 0.00 in - 1.30 in (2013)
Sea Level Pressure  
Sea Level Pressure 29.96 in    
Wind  
Wind Speed 13 mph (NW)    
Max Wind Speed 21 mph    
Max Gust Speed 25 mph    
Visibility 10 miles    
Events      
T = Trace of Precipitation, MM = Missing Value Source: NWS Daily Summary

Daily Weather History Graph

Daily Weather History Graph

Search for Another Location

Airport:

Trip Planner

Search our weather history database for the weather conditions in past years. The results will help you decide how hot, cold, wet, or windy it might be!

Date:

Astronomy

Oct. 14, 2012 Rise Set
Actual Time 7:46 AM CDT 6:56 PM CDT
Civil Twilight 7:19 AM CDT 7:23 PM CDT
Nautical Twilight 6:47 AM CDT 7:55 PM CDT
Astronomical Twilight 6:15 AM CDT 8:27 PM CDT
Moon 6:47 AM CDT (10/14) 6:17 PM CDT (10/14)
Length of Visible Light 12h 04m
Length of Day
11h 09m
Waning Crescent, 1% of the Moon is Illuminated
Oct 14
Waning Crescent
Oct 15
New
Oct 21
First Quarter
Oct 29
Full
Nov 6
Last Quarter

Hourly Weather History & Observations

Time (CDT) Temp. Dew Point Humidity Pressure Visibility Wind Dir Wind Speed Gust Speed Precip Events Conditions
12:15 AM 55.4 °F 39.2 °F 54% 29.75 in 10.0 mi NNW 16.1 mph - N/A   Clear
12:35 AM 55.4 °F 39.2 °F 54% 29.74 in 10.0 mi NNW 19.6 mph 25.3 mph N/A   Clear
12:55 AM 55.4 °F 37.4 °F 51% 29.75 in 10.0 mi NNW 17.3 mph 23.0 mph N/A   Clear
1:15 AM 57.2 °F 37.4 °F 48% 29.76 in 10.0 mi NNW 19.6 mph - N/A   Clear
1:35 AM 59.0 °F 37.4 °F 45% 29.77 in 10.0 mi NNW 18.4 mph 24.2 mph N/A   Clear
1:55 AM 57.2 °F 39.2 °F 51% 29.80 in 10.0 mi NNW 13.8 mph 19.6 mph N/A   Clear
2:15 AM 57.2 °F 39.2 °F 51% 29.81 in 10.0 mi NNW 12.7 mph - N/A   Clear
2:35 AM 57.2 °F 37.4 °F 48% 29.82 in 10.0 mi NNW 16.1 mph - N/A   Partly Cloudy
2:55 AM 59.0 °F 37.4 °F 45% 29.84 in 10.0 mi NNW 16.1 mph - N/A   Mostly Cloudy
3:15 AM 60.8 °F 37.4 °F 42% 29.84 in 10.0 mi NNW 17.3 mph - N/A   Mostly Cloudy
3:35 AM 59.0 °F 37.4 °F 45% 29.85 in 10.0 mi NNW 16.1 mph - N/A   Partly Cloudy
3:55 AM 57.2 °F 35.6 °F 44% 29.86 in 10.0 mi NW 10.4 mph - N/A   Clear
4:15 AM 57.2 °F 35.6 °F 44% 29.87 in 10.0 mi NW 12.7 mph - N/A   Clear
4:35 AM 55.4 °F 35.6 °F 47% 29.87 in 10.0 mi NW 11.5 mph - N/A   Clear
4:55 AM 55.4 °F 33.8 °F 44% 29.88 in 10.0 mi NW 16.1 mph 23.0 mph N/A   Clear
5:15 AM 55.4 °F 33.8 °F 44% 29.89 in 10.0 mi NW 15.0 mph - N/A   Clear
5:35 AM 53.6 °F 33.8 °F 47% 29.90 in 10.0 mi NW 15.0 mph - N/A   Clear
5:55 AM 53.6 °F 33.8 °F 47% 29.90 in 10.0 mi NW 16.1 mph - N/A   Clear
6:15 AM 53.6 °F 35.6 °F 51% 29.92 in 10.0 mi NW 17.3 mph - N/A   Clear
6:35 AM 53.6 °F 35.6 °F 51% 29.94 in 10.0 mi NW 12.7 mph - N/A   Scattered Clouds
6:55 AM 51.8 °F 35.6 °F 54% 29.95 in 10.0 mi NW 10.4 mph - N/A   Scattered Clouds
7:15 AM 51.8 °F 35.6 °F 54% 29.95 in 10.0 mi NW 9.2 mph - N/A   Clear
7:35 AM 50.0 °F 35.6 °F 58% 29.97 in 10.0 mi NW 8.1 mph - N/A   Clear
7:55 AM 50.0 °F 35.6 °F 58% 29.98 in 10.0 mi NW 12.7 mph - N/A   Clear
8:15 AM 50.0 °F 35.6 °F 58% 29.99 in 10.0 mi NW 10.4 mph - N/A   Clear
8:35 AM 51.8 °F 35.6 °F 54% 30.00 in 10.0 mi WNW 11.5 mph - N/A   Clear
8:55 AM 51.8 °F 35.6 °F 54% 30.01 in 10.0 mi WNW 11.5 mph - N/A   Clear
9:15 AM 53.6 °F 35.6 °F 51% 30.01 in 10.0 mi WNW 9.2 mph - N/A   Clear
9:35 AM 53.6 °F 35.6 °F 51% 30.01 in 10.0 mi WNW 12.7 mph - N/A   Clear
9:55 AM 55.4 °F 35.6 °F 47% 30.02 in 10.0 mi NW 13.8 mph 19.6 mph N/A   Clear
10:15 AM 59.0 °F 37.4 °F 45% 30.01 in 10.0 mi NW 17.3 mph - N/A   Clear
10:35 AM 60.8 °F 35.6 °F 39% 30.02 in 10.0 mi NW 17.3 mph 24.2 mph N/A   Clear
10:55 AM 62.6 °F 35.6 °F 37% 30.03 in 10.0 mi NW 16.1 mph 24.2 mph N/A   Clear
11:15 AM 64.4 °F 37.4 °F 37% 30.04 in 10.0 mi NW 19.6 mph 25.3 mph N/A   Clear
11:35 AM 66.2 °F 35.6 °F 32% 30.04 in 10.0 mi NW 20.7 mph 26.5 mph N/A   Clear
11:55 AM 66.2 °F 37.4 °F 35% 30.04 in 10.0 mi NW 20.7 mph 24.2 mph N/A   Clear
12:15 PM 66.2 °F 37.4 °F 35% 30.04 in 10.0 mi NW 17.3 mph 24.2 mph N/A   Clear
12:35 PM 68.0 °F 37.4 °F 33% 30.04 in 10.0 mi NNW 13.8 mph 24.2 mph N/A   Clear
12:55 PM 69.8 °F 37.4 °F 31% 30.04 in 10.0 mi NW 16.1 mph 25.3 mph N/A   Clear
1:15 PM 71.6 °F 37.4 °F 29% 30.03 in 10.0 mi NW 16.1 mph 24.2 mph N/A   Clear
1:35 PM 71.6 °F 37.4 °F 29% 30.02 in 10.0 mi NW 17.3 mph 28.8 mph N/A   Partly Cloudy
1:55 PM 71.6 °F 37.4 °F 29% 30.02 in 10.0 mi NW 17.3 mph 24.2 mph N/A   Scattered Clouds
2:15 PM 73.4 °F 37.4 °F 27% 30.01 in 10.0 mi NW 23.0 mph 28.8 mph N/A   Scattered Clouds
2:35 PM 71.6 °F 37.4 °F 29% 30.01 in 10.0 mi NW 17.3 mph 28.8 mph N/A   Partly Cloudy
2:55 PM 73.4 °F 37.4 °F 27% 30.00 in 10.0 mi NW 17.3 mph 25.3 mph N/A   Partly Cloudy
3:15 PM 73.4 °F 37.4 °F 27% 29.99 in 10.0 mi NW 15.0 mph 21.9 mph N/A   Scattered Clouds
3:35 PM 75.2 °F 37.4 °F 25% 29.99 in 10.0 mi NW 21.9 mph 25.3 mph N/A   Mostly Cloudy
3:55 PM 73.4 °F 35.6 °F 25% 29.99 in 10.0 mi WNW 17.3 mph 21.9 mph N/A   Scattered Clouds
4:15 PM 73.4 °F 35.6 °F 25% 29.98 in 10.0 mi WNW 20.7 mph 27.6 mph N/A   Mostly Cloudy
4:35 PM 73.4 °F 35.6 °F 25% 29.98 in 10.0 mi WNW 19.6 mph 23.0 mph N/A   Scattered Clouds
4:55 PM 73.4 °F 33.8 °F 23% 29.98 in 10.0 mi NW 16.1 mph 24.2 mph N/A   Partly Cloudy
5:15 PM 73.4 °F 33.8 °F 23% 29.98 in 10.0 mi NNW 17.3 mph 21.9 mph N/A   Scattered Clouds
5:35 PM 71.6 °F 33.8 °F 25% 29.99 in 10.0 mi NNW 19.6 mph 24.2 mph N/A   Scattered Clouds
5:55 PM 71.6 °F 33.8 °F 25% 29.99 in 10.0 mi NW 11.5 mph 20.7 mph N/A   Scattered Clouds
6:15 PM 71.6 °F 33.8 °F 25% 30.00 in 10.0 mi NNW 12.7 mph - N/A   Scattered Clouds
6:35 PM 69.8 °F 33.8 °F 27% 30.00 in 10.0 mi NNW 9.2 mph - N/A   Mostly Cloudy
6:55 PM 66.2 °F 33.8 °F 30% 30.00 in 10.0 mi NNW 6.9 mph - N/A   Scattered Clouds
7:15 PM 64.4 °F 33.8 °F 32% 30.01 in 10.0 mi NW 5.8 mph - N/A   Clear
7:35 PM 60.8 °F 33.8 °F 36% 30.01 in 10.0 mi NW 4.6 mph - N/A   Clear
7:55 PM 60.8 °F 33.8 °F 36% 30.01 in 10.0 mi WNW 5.8 mph - N/A   Clear
8:15 PM 60.8 °F 33.8 °F 36% 30.02 in 10.0 mi WNW 5.8 mph - N/A   Clear
8:35 PM 57.2 °F 33.8 °F 41% 30.02 in 10.0 mi NW 6.9 mph - N/A   Clear
8:55 PM 57.2 °F 33.8 °F 41% 30.03 in 10.0 mi WNW 5.8 mph - N/A   Clear
9:15 PM 55.4 °F 33.8 °F 44% 30.03 in 10.0 mi WNW 8.1 mph - N/A   Clear
9:35 PM 55.4 °F 33.8 °F 44% 30.03 in 10.0 mi WNW 8.1 mph - N/A   Clear
9:55 PM 55.4 °F 33.8 °F 44% 30.04 in 10.0 mi WNW 6.9 mph - N/A   Clear
10:15 PM 53.6 °F 33.8 °F 47% 30.04 in 10.0 mi West 3.5 mph - N/A   Clear
10:35 PM 48.2 °F 33.8 °F 58% 30.04 in 10.0 mi Calm Calm - N/A   Clear
10:55 PM 48.2 °F 33.8 °F 58% 30.04 in 10.0 mi Calm Calm - N/A   Clear
11:15 PM 48.2 °F 35.6 °F 62% 30.04 in 10.0 mi Calm Calm - N/A   Clear
11:35 PM 48.2 °F 35.6 °F 62% 30.04 in 10.0 mi WSW 3.5 mph - N/A   Clear
11:55 PM 48.2 °F 35.6 °F 62% 30.03 in 10.0 mi West 4.6 mph - N/A   Clear